Tracking 28790 objects as of 19-Apr-2024
HD Live streaming from Space Station
objects crossing your sky now

OPS 4682 DEB

Track OPS 4682 DEB now!
10-day predictions


NORAD ID: 18965
Int'l Code: 1965-027AN
Perigee: 1,236.6 km
Apogee: 1,311.0 km
Inclination: 90.3 °
Period: 110.9 minutes
Semi major axis: 7644 km
RCS: 0.0182 m2 (small)
Launch date: April 3, 1965
Source: United States (US)
Launch site: AIR FORCE WESTERN TEST RANGE (AFWTR)

Note: This is SATELLITE DEBRIS
Your satellite tracking list
Your tracking list is empty




NASA's NSSDC Master Catalog

Two Line Element Set (TLE):
1 18965U 65027AN  24109.42112965  .00001594  00000-0  53328-2 0  9997
2 18965  90.2585   6.8954 0048653   4.5965  55.8867 12.98838548847933
Source of the keplerian elements: AFSPC